Location: Kergonan
(48.2337°N, 4.5518°W)
Time: 04:07:25
(UTC+00:00)

STARLINK-61 - Pass Details

Date: 18 January 2020
Orbit: 506 x 518 km, 53.0° (Epoch: 26 February)

Event Time Altitude Azimuth Distance (km) Brightness Sun altitude
Rises 07:09:13 0° 235° (SW) 2,619 6.8 -8.8°
Reaches altitude 10° 07:11:24 10° 233° (SW) 1,737 5.9 -8.4°
Maximum altitude 07:15:19 71° 150° (SSE) 548 3.8 -7.8°
Drops below altitude 10° 07:19:16 10° 66° (ENE) 1,747 6.8 -7.2°
Sets 07:21:29 0° 64° (ENE) 2,637 7.8 -6.9°
